Location: Newark
(32.8014°N, 52.8711°E)
Time: 19:54:51
(UTC+00:00)

Envisat - Pass Details

Date: 02 February 2020
Orbit: 764 x 766 km, 98.1° (Epoch: 23 February)

Event Time Altitude Azimuth Distance (km) Brightness Sun altitude
Rises 15:47:45 0° 216° (SW) 3,218 6.8 -22.6°
Reaches altitude 10° 15:51:52 10° 250° (WSW) 2,298 6.5 -23.4°
Maximum altitude 15:53:26 11° 268° (W) 2,205 6.4 -23.8°
Drops below altitude 10° 15:55:02 10° 287° (WNW) 2,302 6.4 -24.1°
Sets 15:59:12 0° 320° (NW) 3,234 6.7 -25.0°
